Weather reports worldwide

Advertisment
Shoeburyness Landwick, United Kingdom (3693): temperature & dewpoint: 17.03.2017 14:00:00 - 23.03.2017 14:00:00 (GMT)Shoeburyness Landwick, United Kingdom (3693): temperature -20cm & temperature -100cm: 17.03.2017 14:00:00 - 23.03.2017 14:00:00 (GMT)Shoeburyness Landwick, United Kingdom (3693): wind speed & gusts: 17.03.2017 14:00:00 - 23.03.2017 14:00:00 (GMT)Shoeburyness Landwick, United Kingdom (3693): wind direction: 17.03.2017 14:00:00 - 23.03.2017 14:00:00 (GMT)Shoeburyness Landwick, United Kingdom (3693): reduced air pressure: 17.03.2017 14:00:00 - 23.03.2017 14:00:00 (GMT)Shoeburyness Landwick, United Kingdom (3693): visibility: 17.03.2017 14:00:00 - 23.03.2017 14:00:00 (GMT)Shoeburyness Landwick, United Kingdom (3693): sunshine duration: 17.03.2017 14:00:00 - 23.03.2017 14:00:00 (GMT)Shoeburyness Landwick, United Kingdom (3693): precipitation: 17.03.2017 14:00:00 - 23.03.2017 14:00:00 (GMT)
Date & Time tt [°C] td [°C] tt -20cm [°C] tt -100cm [°C] ff [km/h] ff [kn] fx [km/h] fx [kn] dd ppp [hPa] vv [km] sd [min] rr [mm]
23.03.2017 14:00:00 - - - - - - - - - - - - 0,0
23.03.2017 13:00:00 9,7 6,8 - - 34 18 48 26 ENE 1016,2 9 24 0,0
23.03.2017 12:00:00 9,8 6,7 - - 35 19 48 26 ENE 1015,9 9 18 0,0
23.03.2017 11:00:00 9,5 7,0 - - 29 16 - - ENE 1015,6 7 6 0,0
23.03.2017 10:00:00 9,5 7,3 - - 29 16 - - ENE 1015,1 6 6 0,0
23.03.2017 09:00:00 8,8 6,9 9,2 9,5 22 12 - - ENE 1014,8 7 0 0,0
23.03.2017 08:00:00 8,4 6,2 - - 21 11 - - E 1014,4 9 0 0,0
23.03.2017 07:00:00 7,8 5,7 - - 21 11 - - E 1013,3 8 0 0,0
23.03.2017 06:00:00 7,8 5,4 - - 24 13 - - E 1012,4 10 0 0,0
23.03.2017 05:00:00 7,4 5,7 - - 15 8 - - E 1012,2 10 0 0,0
23.03.2017 04:00:00 7,1 5,8 - - 11 6 - - ENE 1011,9 12 0 0,4
23.03.2017 03:00:00 7,6 5,8 - - 13 7 - - ESE 1011,7 15 0 0,2
23.03.2017 02:00:00 7,4 7,0 - - 16 9 - - ENE 1011,7 3,8 0 1,0
23.03.2017 01:00:00 7,0 6,5 - - 13 7 - - NE 1011,4 9 0 0,8
23.03.2017 00:00:00 6,9 6,4 - - 11 6 - - ENE 1011,3 7 - 0,8
22.03.2017 23:00:00 7,1 6,3 - - 4 2 - - SE 1011,2 9 0 0,8
22.03.2017 22:00:00 7,6 5,9 - - 18 10 - - SSE 1011,1 5 0 0,4
22.03.2017 21:00:00 8,1 6,1 - - 15 8 - - SE 1010,7 21 0 0,0
22.03.2017 20:00:00 7,7 6,1 - - 9 5 - - SE 1010,2 20 0 0,0
22.03.2017 19:00:00 7,6 4,6 - - 9 5 - - S 1009,8 50 6 0,0
22.03.2017 18:00:00 7,7 4,3 - - 18 10 - - S 1009,1 50 0 0,0
22.03.2017 17:00:00 7,8 4,4 - - 18 10 - - SSW 1008,3 50 0 0,0
22.03.2017 16:00:00 8,9 5,3 - - 28 15 - - S 1007,9 35 0 0,0
22.03.2017 15:00:00 8,8 5,5 - - 34 18 52 28 S 1007,4 35 0 0,0
22.03.2017 14:00:00 8,1 5,2 - - 41 22 57 31 S 1007,4 35 0 0,0
22.03.2017 13:00:00 8,4 5,1 - - 35 19 54 29 S 1007,1 10 0 0,0
22.03.2017 12:00:00 7,4 5,3 - - 39 21 55 30 S 1007,3 13 0 0,2
22.03.2017 11:00:00 9,0 3,6 - - 42 23 57 31 S 1006,7 21 12 0,0
22.03.2017 10:00:00 9,1 3,1 - - 34 18 50 27 S 1006,4 27 6 0,0
22.03.2017 09:00:00 8,1 2,5 9,5 9,4 34 18 52 28 SSE 1006,6 30 0 0,0
22.03.2017 08:00:00 7,8 3,2 - - 31 17 46 25 S 1006,5 23 6 0,0
22.03.2017 07:00:00 7,3 3,3 - - 31 17 46 25 S 1006,5 20 18 0,0
22.03.2017 06:00:00 7,3 3,7 - - 29 16 - - SSE 1006,5 19 0 0,0
22.03.2017 05:00:00 7,3 3,3 - - 28 15 - - SSE 1006,8 19 0 0,0
22.03.2017 04:00:00 7,4 3,0 - - 29 16 - - SSE 1007,3 21 0 0,0
22.03.2017 03:00:00 7,1 3,3 - - 22 12 - - SSE 1007,8 25 0 0,0
22.03.2017 02:00:00 6,7 3,3 - - 22 12 - - S 1008,7 24 0 0,0
22.03.2017 01:00:00 6,4 3,6 - - 24 13 - - S 1009,2 21 0 0,0
22.03.2017 00:00:00 6,6 3,3 - - 22 12 - - S 1009,7 23 - 0,0
21.03.2017 23:00:00 6,0 3,1 - - 21 11 - - SSW 1010,2 20 0 0,0
21.03.2017 22:00:00 6,4 3,1 - - 22 12 - - SSW 1010,4 22 0 0,0
21.03.2017 21:00:00 6,9 3,1 - - 24 13 - - SW 1010,5 25 0 0,0
21.03.2017 20:00:00 7,6 2,4 - - 24 13 - - SW 1010,7 22 0 0,0
21.03.2017 19:00:00 8,5 1,5 - - 28 15 - - SW 1010,5 35 0 0,0
21.03.2017 18:00:00 9,3 0,8 - - 24 13 - - SW 1009,8 30 30 0,0
21.03.2017 17:00:00 10,9 -1,8 - - 15 8 - - SW 1009,6 45 42 0,0
21.03.2017 16:00:00 11,3 -2,3 - - 22 12 - - WSW 1009,6 30 60 0,0
21.03.2017 15:00:00 11,1 -2,8 - - 24 13 - - WSW 1009,6 45 54 0,0
21.03.2017 14:00:00 11,0 -2,2 - - 21 11 - - WSW 1010,2 45 54 0,0
21.03.2017 13:00:00 11,0 -2,0 - - 26 14 - - WSW 1010,2 40 60 0,0
21.03.2017 12:00:00 10,1 -1,9 - - 26 14 - - WSW 1010,2 35 60 0,0
21.03.2017 11:00:00 9,6 -2,6 - - 26 14 - - W 1010,3 40 60 0,0
21.03.2017 10:00:00 8,7 -3,1 - - 24 13 46 25 W 1010,1 40 60 0,0
21.03.2017 09:00:00 7,4 -1,3 10,0 9,4 26 14 - - W 1009,8 30 60 0,0
21.03.2017 08:00:00 6,4 0,6 - - 22 12 - - W 1009,1 30 48 0,0
21.03.2017 07:00:00 5,5 0,5 - - 21 11 - - W 1008,4 35 30 0,0
21.03.2017 06:00:00 5,6 1,2 - - 18 10 - - W 1007,6 45 0 0,0
21.03.2017 05:00:00 6,1 2,3 - - 16 9 - - W 1006,9 30 0 0,0
21.03.2017 04:00:00 7,0 3,2 - - 24 13 - - W 1006,3 40 0 0,0
21.03.2017 03:00:00 7,2 4,7 - - 18 10 - - WSW 1006,0 45 0 0,0
21.03.2017 02:00:00 6,8 4,9 - - 11 6 - - WSW 1005,8 45 0 0,0
21.03.2017 01:00:00 7,1 5,2 - - 13 7 - - WSW 1005,7 40 0 0,0
21.03.2017 00:00:00 7,8 4,4 - - 15 8 - - W 1005,7 45 - 0,0
20.03.2017 23:00:00 8,0 4,6 - - 15 8 - - WSW 1005,5 50 0 0,0
20.03.2017 22:00:00 8,7 5,4 - - 16 9 - - WSW 1004,9 50 0 0,0
20.03.2017 21:00:00 9,3 5,6 - - 18 10 - - W 1004,7 45 0 0,0
20.03.2017 20:00:00 9,5 6,5 - - 13 7 - - W 1004,1 50 0 0,0
20.03.2017 19:00:00 11,0 6,8 - - 21 11 - - W 1003,4 50 0 0,0
20.03.2017 18:00:00 11,1 7,0 - - 24 13 46 25 W 1002,9 50 12 0,0
20.03.2017 17:00:00 11,5 9,0 - - 24 13 - - WSW 1002,5 30 18 0,0
20.03.2017 16:00:00 11,0 9,8 - - 31 17 55 30 SW 1002,1 13 0 0,0
20.03.2017 15:00:00 11,7 8,2 - - 39 21 67 36 SW 1002,3 35 0 0,0
20.03.2017 14:00:00 13,1 8,0 - - 39 21 72 39 WSW 1001,9 27 6 0,0
20.03.2017 13:00:00 12,4 8,8 - - 31 17 50 27 SW 1002,6 35 0 0,0
20.03.2017 12:00:00 12,6 9,4 - - 34 18 54 29 SW 1002,9 50 0 0,0
20.03.2017 11:00:00 12,5 9,7 - - 28 15 48 26 SW 1003,5 50 0 0,0
20.03.2017 10:00:00 12,1 9,8 - - 29 16 - - SW 1003,8 45 0 0,0
20.03.2017 09:00:00 11,8 10,0 10,7 9,2 26 14 - - SW 1004,0 40 0 0,0
20.03.2017 08:00:00 11,4 9,8 - - 24 13 - - SW 1004,4 50 0 0,0
20.03.2017 07:00:00 11,2 9,7 - - 26 14 - - SW 1004,9 50 0 0,0
20.03.2017 06:00:00 11,0 9,7 - - 22 12 - - SW 1004,9 50 0 0,0
20.03.2017 05:00:00 10,7 9,9 - - 21 11 - - SW 1005,4 50 0 0,2
20.03.2017 04:00:00 10,8 9,9 - - 21 11 - - SW 1006,2 16 0 0,2
20.03.2017 03:00:00 11,1 9,8 - - 18 10 - - SW 1006,4 11 0 0,2
20.03.2017 02:00:00 11,7 9,2 - - 15 8 - - WSW 1007,2 20 0 0,0
20.03.2017 01:00:00 11,7 9,2 - - 16 9 - - WSW 1007,4 14 0 0,0
20.03.2017 00:00:00 11,9 9,2 - - 22 12 - - WSW 1007,9 16 - 0,0
19.03.2017 23:00:00 11,6 9,1 - - 21 11 - - WSW 1008,0 13 0 0,0
19.03.2017 22:00:00 11,5 8,9 - - 18 10 - - WSW 1008,2 12 0 0,0
19.03.2017 21:00:00 12,7 9,0 - - 21 11 - - WSW 1008,2 16 0 0,0
19.03.2017 20:00:00 12,8 8,9 - - 22 12 - - WSW 1008,2 14 0 0,0
19.03.2017 19:00:00 13,0 8,8 - - 24 13 - - WSW 1007,8 13 0 0,0
19.03.2017 18:00:00 13,5 8,6 - - 21 11 50 27 WSW 1007,5 20 0 0,0
19.03.2017 17:00:00 14,3 7,9 - - 29 16 55 30 W 1006,9 30 24 0,0
19.03.2017 16:00:00 15,5 7,3 - - 31 17 63 34 W 1006,6 45 36 0,0
19.03.2017 15:00:00 15,1 7,4 - - 34 18 57 31 WSW 1007,0 30 6 0,0
19.03.2017 14:00:00 15,1 8,1 - - 29 16 50 27 W 1007,4 30 18 0,0
19.03.2017 13:00:00 14,6 8,6 - - 31 17 52 28 WSW 1007,4 30 0 0,0
19.03.2017 12:00:00 14,9 8,4 - - 37 20 55 30 WSW 1008,0 25 54 0,0
19.03.2017 11:00:00 14,1 8,0 - - 34 18 52 28 W 1007,9 45 18 0,0
19.03.2017 10:00:00 13,3 7,4 - - 29 16 48 26 W 1008,2 30 0 0,0
19.03.2017 09:00:00 13,0 8,1 10,2 9,0 26 14 52 28 W 1008,4 45 0 0,0
19.03.2017 08:00:00 12,5 8,7 - - 29 16 46 25 WSW 1008,5 40 0 0,0
19.03.2017 07:00:00 12,3 9,5 - - 26 14 46 25 WSW 1008,4 35 0 0,0
19.03.2017 06:00:00 12,2 9,7 - - 26 14 48 26 WSW 1008,7 30 0 0,0
19.03.2017 05:00:00 11,9 9,8 - - 22 12 - - WSW 1008,5 40 0 0,0
19.03.2017 04:00:00 12,2 10,1 - - 24 13 - - WSW 1009,0 20 0 0,0
19.03.2017 03:00:00 12,2 9,9 - - 22 12 - - WSW 1009,7 35 0 0,0
19.03.2017 02:00:00 12,1 9,8 - - 26 14 - - WSW 1009,7 45 0 0,0
19.03.2017 01:00:00 12,6 10,0 - - 21 11 - - WSW 1010,2 45 0 0,0
19.03.2017 00:00:00 12,3 9,7 - - 21 11 - - W 1010,8 40 - 0,0
18.03.2017 23:00:00 12,3 9,7 - - 18 10 - - WSW 1011,1 50 0 0,0
18.03.2017 22:00:00 12,9 9,8 - - 24 13 - - W 1011,4 50 0 0,0
18.03.2017 21:00:00 13,1 9,8 - - 22 12 - - W 1011,3 40 0 0,0
18.03.2017 20:00:00 13,7 9,8 - - 18 10 - - W 1011,2 45 0 0,0
18.03.2017 19:00:00 13,7 9,8 - - 18 10 - - W 1010,8 45 0 0,0
18.03.2017 18:00:00 14,0 9,8 - - 18 10 - - W 1010,2 50 0 0,0
18.03.2017 17:00:00 14,8 9,8 - - 24 13 - - W 1009,9 40 0 0,0
18.03.2017 16:00:00 15,1 9,6 - - 26 14 - - W 1009,6 35 6 0,0
18.03.2017 15:00:00 14,9 9,8 - - 24 13 - - W 1009,9 30 0 0,0
18.03.2017 14:00:00 15,4 10,5 - - 22 12 - - W 1009,9 30 0 0,0
18.03.2017 13:00:00 14,9 10,1 - - 21 11 48 26 W 1009,9 27 0 0,0
18.03.2017 12:00:00 15,0 9,7 - - 29 16 - - WNW 1010,0 50 18 0,0
18.03.2017 11:00:00 14,5 9,7 - - 24 13 - - W 1009,5 35 18 0,0
18.03.2017 10:00:00 14,4 10,2 - - 28 15 - - W 1009,2 28 18 0,0
18.03.2017 09:00:00 12,9 10,3 9,7 9,0 26 14 - - W 1009,0 30 0 0,0
18.03.2017 08:00:00 11,7 10,0 - - 26 14 - - W 1008,6 30 0 0,0
18.03.2017 07:00:00 11,5 9,8 - - 28 15 46 25 W 1008,4 20 0 0,0
18.03.2017 06:00:00 11,6 9,9 - - 28 15 46 25 W 1007,7 19 0 0,0
18.03.2017 05:00:00 11,5 9,9 - - 28 15 - - W 1006,6 35 0 0,0
18.03.2017 04:00:00 11,2 9,6 - - 28 15 46 25 W 1006,7 50 0 0,0
18.03.2017 03:00:00 10,8 9,1 - - 24 13 55 30 W 1006,7 45 0 0,0
18.03.2017 02:00:00 11,4 8,3 - - 29 16 54 29 W 1006,9 50 0 0,0
18.03.2017 01:00:00 11,0 7,6 - - 29 16 54 29 W 1007,2 50 0 0,0
18.03.2017 00:00:00 10,4 6,8 - - 34 18 52 28 WSW 1007,2 50 - 0,0
17.03.2017 23:00:00 10,3 6,2 - - 37 20 54 29 WSW 1008,1 40 0 0,0
17.03.2017 22:00:00 9,9 5,8 - - 29 16 46 25 WSW 1008,9 45 0 0,0
17.03.2017 21:00:00 9,6 5,4 - - 29 16 50 27 WSW 1010,0 35 0 0,0
17.03.2017 20:00:00 9,5 5,2 - - 28 15 - - SW 1010,9 24 0 0,0
17.03.2017 19:00:00 9,7 4,5 - - 31 17 50 27 WSW 1012,4 30 0 0,0
17.03.2017 18:00:00 10,3 4,0 - - 26 14 46 25 WSW 1013,3 35 0 0,0
17.03.2017 17:00:00 10,6 3,7 - - 28 15 46 25 WSW 1014,0 30 0 0,0
17.03.2017 16:00:00 10,6 3,7 - - 22 12 - - WSW 1015,3 28 0 0,0
17.03.2017 15:00:00 10,6 2,9 - - 26 14 46 25 W 1016,4 30 0 0,0
17.03.2017 14:00:00 10,5 2,1 - - 26 14 - - WSW 1016,7 40 0 0,0

tt = temperature
td = dewpoint
tt -20cm = temperature -20cm
tt -100cm = temperature -100cm
ff = wind speed
fx = gusts
dd = wind direction
ppp = reduced air pressure
vv = visibility
sd = sunshine duration
rr = precipitation

Next stations